Погода Варандей

Погода Варандей : погода сейчас, прогноз погоды и архив. Всё, что Вы хотите узнать о погоде Варандей!

Хотите узнать прогноз погоды Варандей? Тогда Вам сюда: Погода Варандей

Поиск расширенной информации на нашем сайте:

Другие новости

Новости СМИ2

Главная страница сайта

Новости сайта

03.07.2017

Напоминаем, что на нашем специализированном сайте Метеоцентр.Азия вы можете получить высокодетализированные автоматические прогнозы погоды по пунктам России, СНГ и мира в авиационном формате (включающие направление и скорость ветра, видимость, явления погоды, количество и форму облачности, нижнюю и верхнюю границу облачности).


Погода Варандей - сегодня

Время (UTC), дата Ветер
(°,м/с) 
Видим.   Явления Облачность Т
(°С)
Тd
(°С)
f(%) Тe
(°С)
Pmin
(гПа)
dP
(гПа)
Po
(мм)
O2
(г/м3)
Тmin Tmax R s Состояние
почвы
18 19.10.18 070 (В) 20000 м    ясно 
-4.2 -4.4 99 -7  1006.1  0.8  754  309           
21 19.10.18 060 (СВ) 20000 м    ясно 
-4.7 -4.7 100 -8  1006.6  0.5  754  310           
00 20.10.18 070 (В) 20000 м    ясно 
-2.3 -2.3 100 -4  1007.4  0.8  755  307           
03 20.10.18 060 (СВ) 20000 м    10/10 300 м кучево-дожд. 
[Cb cap]
-2.5 -3.1 96 -5  1008.7  1.3  756  308  -4.9      равномерный
мокрый или
старый снег
100% 
06 20.10.18 070 (В) 10 км    5/3 300 м верхняя 
[Cu Sc|Ci fib]
-3.3 -3.7 97 -5  1010.2  1.5  757  309           
09 20.10.18 060 (СВ) 20000 м    ясно 
-1.3 -3.7 84 -5  1011.7  1.5  758  307           
12 20.10.18 050 (СВ) 20000 м    3/3 300 м 
[Sc diur, vesp]
-2.7 -5.6 80 -6  1013.4  1.7  759  310           
15 20.10.18 080 (В) 20000 м    ясно 
-3.2 -5.6 83 -5  1015  1.6  761  311    -1.1       
18 20.10.18 200 (Ю) 20000 м    8/8 600 м 
[Sc]
-2.1 -3.7 89 -3  1015.7  0.7  761  309           
21 20.10.18 220 (ЮЗ) 20000 м    4/4 600 м 
[Sc]
-2.5 -3.9 90 -6  1016.3  0.6  762  310           
00 21.10.18 210 (ЮЗ) 20000 м    6/6 300 м 
[Cu Sc]
-2.8 -3.4 96 -6  1016.6  0.3  762  311           
03 21.10.18 200 (Ю) 20000 м    6/6 300 м 
[Sc]
-3.7 -4.5 94 -8  1016.5  -0.1  762  312  -3.7      мокрый или
старый снег
50-90% 
06 21.10.18 210 (ЮЗ) 10 км    9/9 300 м 
[Sc]
-3.4 -4.3 93 -8  1016.3  -0.2  762  311  -3.9         
09 21.10.18 210 (ЮЗ) 10 км    9/9 330 м 
[Cu Sc]
-2.6 -3.1 96 -7  1016.3  762  310           
15 21.10.18 220 (ЮЗ) 8{10}  20000 м    9/9 540 м 
[Sc]
-2.5 -3.5 93 -7  1014.6  -0.9  760  310    -1       
18 21.10.18 210 (ЮЗ) 8{10}  20000 м    9/8 600 м средняя 
[Sc|Ac trans]
-4.2 -4.8 96 -9  1012.7  -1.9  759  311           
21 21.10.18 200 (Ю) 20000 м    9/6 600 м средняя 
[Sc|Ac trans]
-3.9 -4.6 95 -9  1010.8  -1.9  757  310           
03 22.10.18 140 (ЮВ) 20000 м    10/10 300 м 
[Sc]
-4.7 -5.1 97 -9  1005.3  -3.1  753  309  -5      сухой снег
50-90% 
06 22.10.18 130 (ЮВ) 20000 м    9/9 330 м 
[Sc]
-3.6 -4.7 92 -8  1002.4  -2.9  751  307           
09 22.10.18 130 (ЮВ) 7{10}  10 км  слаб. ливневой снег  10/8 300 м кучево-дожд., верхняя 
[Cb calv|Ci fib]
-3.7 -4.1 97 -8  999.6  -2.8  749  306           
12 22.10.18 110 (В) 8-10{11}  10 км  слаб. снег{ливн. осадки}  10/0 средняя, верхняя 
[Ac As|Ci fib]
-3.9 -4.1 98 -9  996.6  -2.9  747  306           
15 22.10.18 110 (В) 7{11}  10 км  слаб. снег  10/10 2000 м 
[Ns]
-3.4 -3.8 97 -8  993.4  -3.3  744  304    -3.4  0.8     
03 23.10.18 080 (В) 7{12}  10 км  слаб. снег  10/10 2000 м 
[Ns]
-3.1 -3.1 100 -8  982.7  -0.6  736  300  -3.4    равномерный
сухой снег
100% 
06 23.10.18 080 (В) 5{10}  10 км  слаб. снег  10/0 средняя 
[As op]
-3.3 -3.3 100 -7  984.2  1.5  738  301           
09 23.10.18 060 (СВ) 10 км  {снег}  10/10 300 м кучево-дожд. 
[Cb cap]
-2.4 -2.4 100 -4  986.4  2.2  739  301           
Время (UTC), дата Ветер
(°,м/с) 
Видим.   Явления Облачность Т
(°С)
Тd
(°С)
f(%) Тe
(°С)
Pmin
(гПа)
dP
(гПа)
Po
(мм)
O2
(г/м3)
Тmin Tmax R s Состояние
почвы

Для получения пояснительной информации подведите курсор к названию столбца.

ПОГОДА Варандей - архив

Всё, что Вы хотите узнать о погоде Варандей - удобно и подробно!

Выберите нужную дату (начиная с 1 января 2015* года) и нажмите кнопку "Найти".
Будут отображены архивные сводки погоды по пункту Варандей, начиная с указанной даты.


Отображать данные в формате CSV (для использования в таблицах Excel)


Внимание! Наш архив погоды предназначен исключительно для личного некоммерческого использования в познавательных целях. Если Вам необходимы официальные справки о состоянии погоды (для производственных, юридических, коммерческих и т.п. целей), обращайтесь в органы Росгидромета.

*Примечание: данная дата относится к архиву по метеостанциям СССР (Россия, СНГ, Балтия).
Архив по метеостанциям Зарубежной Европы и Азии (кроме Китая) хранится 10 дней, по другим регионам земного шара (Китай, Африка, Америка, Австралия, Океания) - 1 день.

Варандей - район местоположения метеостанции


Название, широта, долгота, высота метеостанции:
Варандей 68.8°ш. 58°д. 5 м над ур. моря [Российская Федерация]

Дополнительная информация

В oтличие oт бoльшинства пoгoдных сайтoв мы публикуем пoдрoбную метеoинфoрмацию в детальнoм прoфессиoнальнoм фoрмате.

Характеристики температуры и влажнoсти вoздуха измеряются на высoте 2 м в тени вдали oт зданий и деревьев.
Скoрoсть ветра измеряется на высoте 10 м (на урoвне рoста челoвека скoрoсть ветра ниже в 1.5-2 раза). Если метеoстанция нахoдится в гoрoде или в лесу, тo скoрoсть ветра занижена на 2-4 м/с пo сравнению с oткрытым местoм. Скoрoсть ветра над акватoриями крупных рек и oзёр, а также на вершинах хoлмoв на 2-5 м/с выше, чем в oбычных услoвиях.
Атмoсфернoе давление в разных тoчках местнoсти мoжет значительнo oтличаться oт давления на метеoстанции, в зависимoсти oт услoвий рельефа (при пoдъёме на 10 м давление пoнижается примернo на 1 мм рт.ст.).